Weather History for Kendall, FL

Change the Weather History Date:

Saturday, November 19, 2011

  Actual Average Record
Temperature  
Mean Temperature 76 °F -  
Max Temperature 81 °F 81 °F 86 °F (2000)
Min Temperature 72 °F 63 °F 48 °F (2006)
Cooling Degree Days 12    
Growing Degree Days 26 (Base 50)    
Moisture  
Dew Point 69 °F    
Average Humidity 79    
Maximum Humidity 90    
Minimum Humidity 69    
Precipitation  
Precipitation 0.00 in - - ()
Sea Level Pressure  
Sea Level Pressure 30.15 in    
Wind  
Wind Speed 16 mph (East)    
Max Wind Speed 23 mph    
Max Gust Speed 30 mph    
Visibility 10 miles    
Events Rain    
Averages and records for this station are not official NWS values.
T = Trace of Precipitation, MM = Missing Value Source: NWS Daily Summary

Daily Weather History Graph

Daily Weather History Graph

Search for Another Location

Airport:

Trip Planner

Search our weather history database for the weather conditions in past years. The results will help you decide how hot, cold, wet, or windy it might be!

Date:

Astronomy

Nov. 19, 2011 Rise Set
Actual Time 6:42 AM EST 5:31 PM EST
Civil Twilight 6:17 AM EST 5:56 PM EST
Nautical Twilight 5:49 AM EST 6:24 PM EST
Astronomical Twilight 5:22 AM EST 6:51 PM EST
Moon 12:37 AM EST 1:15 PM EST
Length of Visible Light 11h 38m
Length of Day
10h 49m
Last Quarter, 38% of the Moon is Illuminated
Nov 19
Last Quarter
Nov 25
New
Dec 2
First Quarter
Dec 10
Full
Dec 17
Last Quarter

Hourly Weather History & Observations

Time (EST) Temp. Heat Index Dew Point Humidity Pressure Visibility Wind Dir Wind Speed Gust Speed Precip Events Conditions
12:53 AM 73.9 °F - 70.0 °F 87% 30.12 in 10.0 mi East 16.1 mph - N/A   Scattered Clouds
1:53 AM 73.0 °F - 70.0 °F 90% 30.11 in 10.0 mi East 12.7 mph - N/A   Scattered Clouds
2:53 AM 73.9 °F - 70.0 °F 87% 30.11 in 10.0 mi East 11.5 mph - N/A   Mostly Cloudy
3:53 AM 73.4 °F - 69.8 °F 88% 30.11 in 10.0 mi East 12.7 mph - N/A   Overcast
4:53 AM 75.0 °F - 70.0 °F 84% 30.11 in 10.0 mi East 15.0 mph - N/A   Overcast
5:53 AM 73.9 °F - 70.0 °F 87% 30.13 in 10.0 mi East 11.5 mph - N/A   Scattered Clouds
6:53 AM 72.0 °F - 66.9 °F 84% 30.14 in 10.0 mi East 17.3 mph 25.3 mph 0.00 in Rain Light Rain
7:53 AM 75.9 °F - 70.0 °F 82% 30.16 in 10.0 mi East 13.8 mph - 0.00 in   Overcast
8:53 AM 78.1 °F - 70.0 °F 76% 30.17 in 10.0 mi East 17.3 mph - N/A   Overcast
9:53 AM 80.1 °F 83.2 °F 70.0 °F 71% 30.19 in 10.0 mi East 20.7 mph 26.5 mph N/A   Scattered Clouds
10:53 AM 81.0 °F 84.4 °F 70.0 °F 69% 30.19 in 10.0 mi East 20.7 mph 25.3 mph N/A   Mostly Cloudy
11:12 AM 80.6 °F 83.9 °F 69.8 °F 70% 30.18 in 10.0 mi East 23.0 mph 26.5 mph N/A   Scattered Clouds
11:23 AM 80.6 °F 83.9 °F 69.8 °F 70% 30.18 in 10.0 mi East 23.0 mph 27.6 mph N/A   Mostly Cloudy
11:31 AM 80.6 °F 83.9 °F 69.8 °F 70% 30.18 in 10.0 mi East 21.9 mph 27.6 mph N/A   Partly Cloudy
11:53 AM - - - N/A% 30.17 in 10.0 mi East 18.4 mph 27.6 mph N/A   Scattered Clouds
12:07 PM - - - N/A% 30.17 in 10.0 mi East 17.3 mph 28.8 mph N/A   Mostly Cloudy
12:26 PM - - - N/A% 30.16 in 10.0 mi East 19.6 mph 26.5 mph N/A   Mostly Cloudy
12:35 PM - - - N/A% 30.16 in 10.0 mi East 20.7 mph 26.5 mph N/A   Mostly Cloudy
12:45 PM - - - N/A% 30.15 in 10.0 mi East 20.7 mph 29.9 mph N/A   Mostly Cloudy
12:53 PM - - - N/A% 30.16 in 10.0 mi East 18.4 mph 24.2 mph N/A   Mostly Cloudy
1:53 PM 79.0 °F - 68.0 °F 69% 30.14 in 10.0 mi East 17.3 mph - N/A   Mostly Cloudy
2:53 PM 80.1 °F 82.9 °F 69.1 °F 69% 30.14 in 10.0 mi East 17.3 mph - N/A   Mostly Cloudy
3:53 PM 78.8 °F - 69.8 °F 74% 30.14 in 10.0 mi East 15.0 mph - N/A   Scattered Clouds
4:39 PM 78.8 °F - 68.0 °F 69% 30.14 in 10.0 mi East 17.3 mph 23.0 mph N/A   Mostly Cloudy
4:53 PM 77.0 °F - 69.1 °F 76% 30.14 in 10.0 mi East 16.1 mph - N/A   Scattered Clouds
5:53 PM 75.0 °F - 69.1 °F 82% 30.15 in 10.0 mi East 10.4 mph - N/A   Partly Cloudy
6:53 PM 73.4 °F - 69.8 °F 88% 30.17 in 10.0 mi East 9.2 mph - N/A   Clear
7:53 PM 73.4 °F - 69.8 °F 88% 30.17 in 10.0 mi East 10.4 mph - N/A   Partly Cloudy
8:53 PM 75.0 °F - 69.1 °F 82% 30.18 in 10.0 mi East 10.4 mph - N/A   Clear
9:53 PM 75.0 °F - 69.1 °F 82% 30.18 in 10.0 mi East 12.7 mph - N/A   Clear
10:53 PM 73.9 °F - 68.0 °F 82% 30.18 in 10.0 mi East 10.4 mph - N/A   Clear
11:53 PM 73.9 °F - 68.0 °F 82% 30.17 in 10.0 mi East 9.2 mph - N/A   Clear